Location: Gwatt
(46.7204°N, 7.6223°E)
Time: 11:08:14
(UTC+00:00)

Lacrosse 5 rocket - Pass Details

Date: 18 September 2020
Orbit: 460 x 636 km, 57.0° (Epoch: 24 October)

Event Time Altitude Azimuth Distance (km) Brightness Sun altitude
Rises 19:46:43 0° 287° (WNW) 2,785 6.3 -22.5°
Reaches altitude 10° 19:49:21 10° 303° (WNW) 1,920 5.2 -22.9°
Maximum altitude 19:52:48 22° 355° (N) 1,335 3.6 -23.4°
Enters shadow 19:55:08 15° 34° (NE) 1,653 3.7 -23.8°
